ATLAS 5 CENTAUR DEB, 43952

Orbit data source: Space-Track

ATLAS 5 CENTAUR DEB, 43952 is space debris in HEO originally from a launch on Wed, 17 Sep 2014 UTC launched from the Air Force Eastern Test Range (AFETR). Debris objects in space refer to the collection of defunct objects orbiting the Earth. Examples of debris include non-operational satellites, rocket bodies, and fragments generated from explosions, collisions, or faulty payload assembly.

Loading next visibility...
Identifier
43952, 2014-055F
Orbit
HEO
Country
Flag of USUS
Related business
Flag of USUnited Launch Alliance/Lockheed Martin (US)
Manufacturer
Unknown
Mission
Spacecraft
Bus & Motor
Unknown
Mass
Unknown
Launch date (UTC)
2014-09-17 (11 years ago)
Launch vehicle
Unknown
Launch site
Air Force Eastern Test Range (AFETR)
Object type
Payload
Rocket body
Debris
Shape & HBR
Unknown shape, 1.1 m
Radar Cross Section
RCS unknown

Expand to show TLE details & history
Last TLE update: 6 days ago

TLE from 6 days ago
0 ATLAS 5 CENTAUR DEB
1 43952U 14055F   26060.87007427 -.00000317  00000-0  00000+0 0  9998
2 43952  21.1753  90.2273 5119255 266.0843  36.5214  1.97475932 53910
Epoch: 2026-03-01T20:52Z
TLE epoch observation values (Epoch: 2026-03-01T20:52:54.416Z)
Latitude
-0.00001°
Longitude
-22.56071°
Altitude
14,150.581 km
Speed
4.897 km/s
True Right ascension
06h 01m 21s
True Declination
0° 00' 00"
Sunlit
Object was in daylight at epoch
Visualization orbit readout
Latitude
Unknown
Longitude
Unknown
Altitude
Unknown
Speed
Unknown
Apparent Right ascension
Unknown
Apparent Declination
Unknown
Sunlit
N/A
Visualization observer readout
Local Sidereal Time
04:07:23
Azimuth
Unknown
Elevation
Unknown
Doppler factor
Unknown
Orbital elements
Apogee altitude
34,199.811 km
Perigee altitude
6,721.094 km
Semi-major axis
26,838.59 km
Eccentricity
0.51193
Inclination
21.1753°
RAAN
90.2273°
Arg. of periapsis
266.0843°
True anomaly
93.82422°
Mean anomaly
36.5214°
Eccentric anomaly
62.55036°
Mean motion
0.49363 °/min
Orbital period
729.29 mins
BSTAR
0
Loading maneuver chart data...
Computing Atmospheric mass density...

Documentation

Showing up to 5 results
|